Regional Weather Roundup
Issued by NWS

Home | Current Version | Previous Version | Graphics & Text | Print | Product List | Glossary On
Versions: 1 2 3 4 5 6 7 8 9 10 11 12 13 14 15 16 17 18 19 20 21 22 23 24 25 26 27 28 29 30 31 32 33 34 35 36 37 38 39 40 41 42 43 44 45 46 47 48 49 50
000
ASUS45 KBOU 170607
RWRCO

WEATHER ROUNDUP FOR COLORADO
NATIONAL WEATHER SERVICE DENVER/BOULDER CO
1200 AM MDT TUE OCT 17 2017

NOTE: "FAIR" INDICATES FEW OR NO CLOUDS BELOW 12000 FEET WITH NO
SIGNIFICANT WEATHER AND/OR OBSTRUCTIONS TO VISIBILITY.

COZ001>005-013-030-031-170700-
...NORTHWEST COLORADO...

CITY           SKY/WX    TMP DP  RH WIND       PRES   REMARKS
CRAIG          FAIR      25  16  68 CALM      30.40R
HAYDEN         FAIR      38   9  30 E6        30.41S
MEEKER         FAIR      34  15  46 E7        30.41S WCI  28
RABBIT EARS PA FAIR      36   3  25 W7        30.55S
STEAMBOAT SPGS FAIR      34  11  37 CALM      30.42S
WALDEN         FAIR      25   9  50 SE8       30.46S WCI  16
$$

COZ006>008-011-170700-
...WEST CENTRAL VALLEYS...

CITY           SKY/WX    TMP DP  RH WIND       PRES   REMARKS
GRAND JUNCTION FAIR      44  12  27 E5        30.35S
MONTROSE       FAIR      37  17  44 S12       30.42S
EAGLE          FAIR      32  12  43 SE3       30.47R
RIFLE          FAIR      38  13  35 CALM      30.40S
DELTA          FAIR      41  16  36 E6        30.39S
NUCLA          FAIR      41   9  26 E6        30.42S
$$

COZ017>023-064>068-170700-
...SOUTHWEST COLORADO...

CITY           SKY/WX    TMP DP  RH WIND       PRES   REMARKS
DURANGO        FAIR      35  17  47 CALM      30.41S
CORTEZ         FAIR      34  17  50 E6        30.39S WCI  29
PAGOSA SPRINGS FAIR      36  15  41 CALM      30.46F
TELLURIDE      NOT AVBL
WOLF CREEK PAS FAIR      36   9  32 SW16G22   30.69F
$$

COZ009-010-012-014-032>034-037-058>063-170700-
...CENTRAL COLORADO...

CITY           SKY/WX    TMP DP  RH WIND       PRES   REMARKS
ASPEN          FAIR      32  11  41 S6        30.47F WCI  26
BUENA VISTA    FAIR      40   4  23 W12       30.45F
COPPER MTN     FAIR      34   5  29 CALM      30.64F HAZE
BERTHOUD PASS  FAIR      30  21  69 NW8       30.64F WCI  23
COTTONWOOD PAS FAIR      50 -24   4 W8        30.54S
GUNNISON       FAIR      27   9  46 CALM      30.50R
KREMMLING      FAIR      32  18  55 CALM      30.47S
LEADVILLE      FAIR      28   1  31 NE9       30.54F WCI  19
MONARCH PASS   FAIR      34  -9  15 W23       30.74S WCI  22
SALIDA         NOT AVBL
SUNLIGHT       FAIR      36  -8  15 SW9       30.62F
WILKERSON PASS FAIR      41 -13   9 NW5       30.62F
$$

COZ069>075-170700-
...SAN LUIS VALLEY/SANGRE DE CRISTO MOUNTAINS...

CITY           SKY/WX    TMP DP  RH WIND       PRES   REMARKS
ALAMOSA        FAIR      31  16  54 W7        30.43S WCI  24
DEL NORTE      FAIR      43  14  30 SW5       30.45S
LA VETA PASS   FAIR      45  10  24 SW26G40   30.63S
SAGUACHE       FAIR      41   7  24 NW9       30.45F
$$

COZ035-036-038>040-170700-
...NORTHERN COLORADO FRONT RANGE...

CITY           SKY/WX    TMP DP  RH WIND       PRES   REMARKS
DENVER INTL AP FAIR      52  18  26 SW7       30.27S
DMNS CITY PARK   N/A     45  22  41 E13       30.28R
AURORA         PTCLDY    45  19  34 SE7       30.30R
FRONT RANGE AP FAIR      54  18  24 SW6       30.29S
ERIE MUNI ARPT FAIR      47  21  35 E6        30.32R
BOULDER MUN AP FAIR      61  12  15 W10       30.24F
CENTENNIAL     FAIR      44  18  35 S6        30.29S
BROOMFIELD     FAIR      57  12  17 NE6       30.29R
FORT COLLINS   FAIR      47  21  35 S5        30.26R
LONGMONT       FAIR      42  28  57 E3        30.27S
$$

COZ041-046-047-076>085-087-088-170700-
...PIKES PEAK/PALMER DIVIDE AND SOUTHERN FOOTHILLS...

CITY           SKY/WX    TMP DP  RH WIND       PRES   REMARKS
COLO. SPRINGS  FAIR      46  16  30 N7        30.32F
A. F. ACADEMY  FAIR      36  14  39 N8        30.33F
SCHRIEVER AFB  FAIR      51   8  18 NW9       30.31F
CHEYENNE MTN   FAIR      56   8  15 W6        30.30S
ELLICOTT       FAIR     N/A N/A N/A CALM      30.29F
FALCON         FAIR      44   9  24 NW8       30.35F
FORT CARSON    FAIR      47  17  29 NW12      30.28S
LIMON          FAIR      36  23  59 NW5       30.26F
MONUMENT HILL  FAIR      39  10  30 SW7       30.37S
CANON CITY     CLEAR     50  12  22 W13       30.27S
WALSENBURG     FAIR      54  14  20 W7        30.29S
TRINIDAD       FAIR      50  22  33 W14       30.26F
$$

COZ042>045-048>051-090-091-170700-
...NORTHEAST COLORADO...

CITY           SKY/WX    TMP DP  RH WIND       PRES   REMARKS
GREELEY ARPT   FAIR      38  29  70 CALM      30.26
AKRON          FAIR      58  14  17 CALM      30.23R
BURLINGTON     FAIR      42  31  64 CALM      30.20R
WRAY           FAIR      43  28  56 W7        30.18S
YUMA           FAIR      37  28  70 W5        30.20S
STERLING       FAIR      36  28  75 W3        30.19S
HOLYOKE        FAIR      52  30  43 NW5       30.17F
FORT MORGAN    FAIR      42  18  39 W8        30.24S
$$

COZ086-089-092>099-170700-
...SOUTHEAST COLORADO...

CITY           SKY/WX    TMP DP  RH WIND       PRES   REMARKS
PUEBLO         FAIR      48  26  42 SW6       30.22S
LA JUNTA       FAIR      47  30  51 NW8       30.18S
LAMAR          FAIR      41  32  70 CALM      30.15S
SPRINGFIELD      N/A     45  36  70 W7        30.19F
$$



USA.gov is the U.S. government's official web portal to all federal, state and local government web resources and services.